Theta_e
277 277 277 277 277 276 277 277 277 277 277 277 277 277 276 276 274 272 272 273 273 276 277 277 278 278 279 279 280 279 278 280 281 279 279 278 278 280 284 285 286 286 287 287 287 287 288 288 289 290 291 291 292 293 294 294 295 295 296 296 297 299 300 301 301 301 302 303 303 304 305 306 306 307
277 277 277 277 277 277 277 277 277 277 277 277 277 277 277 277 274 274 272 273 276 275 277 277 277 277 277 278 278 278 277 280 280 278 277 277 277 281 282 283 284 285 285 286 286 286 287 287 288 288 289 290 291 292 293 293 294 294 295 297 298 298 299 300 299 300 301 302 302 303 304 304 306 307
277 276 276 276 276 276 276 276 277 277 277 277 277 277 278 277 276 275 275 272 276 276 276 276 277 276 276 276 276 276 276 278 278 277 276 276 279 280 279 281 282 283 284 285 285 286 287 287 288 288 289 289 291 292 292 292 293 293 294 296 297 297 299 298 299 299 300 300 302 302 303 304 304 305
277 276 276 276 276 276 276 276 276 275 276 275 275 275 275 275 275 274 273 272 272 276 276 276 276 275 275 275 274 274 275 277 278 276 276 276 278 276 276 279 281 282 283 284 285 285 286 287 287 288 288 289 290 291 291 292 292 293 294 295 296 296 297 297 297 298 299 300 300 301 301 302 302 303
276 276 275 275 275 276 275 275 274 274 274 274 274 274 274 273 274 273 272 271 271 273 276 275 275 274 274 273 274 273 273 274 274 276 275 275 275 275 275 275 278 281 282 283 284 286 287 287 287 288 288 288 289 290 290 290 291 292 293 293 295 296 296 297 297 298 298 299 300 300 301 302 302 302
276 276 275 274 274 274 274 273 273 273 273 273 272 272 273 272 272 273 272 271 271 270 273 273 273 273 274 271 274 272 272 273 274 274 274 275 275 275 275 275 276 280 282 283 284 286 286 287 287 287 288 288 289 289 290 289 290 292 292 292 292 294 295 296 296 296 297 298 299 300 301 301 302 302
275 274 274 273 272 273 272 272 272 272 272 272 271 271 272 271 271 272 272 270 268 269 269 271 270 271 272 272 272 273 273 274 274 273 274 274 275 276 276 275 276 279 282 283 285 285 286 286 287 287 287 287 288 288 289 289 289 290 291 291 291 291 292 294 295 296 297 299 300 300 300 301 301 302
274 274 273 272 272 271 271 270 271 271 271 271 271 270 271 271 270 271 271 271 269 268 267 269 270 271 271 271 272 273 274 273 273 274 274 275 275 275 276 276 275 278 282 284 284 285 285 286 286 286 286 287 287 288 288 288 289 289 289 290 290 291 292 293 293 294 296 297 299 300 300 301 301 301
274 273 273 272 271 271 270 269 269 270 269 270 270 270 270 270 270 270 270 269 269 268 267 268 270 271 271 272 272 273 272 273 273 274 274 274 274 275 276 276 278 280 282 283 283 283 284 284 285 286 286 286 287 287 288 288 289 289 289 289 289 291 291 292 292 293 294 294 296 297 299 300 300 300
273 273 273 272 271 271 270 269 268 269 268 268 268 268 269 269 270 269 269 269 269 269 268 268 268 270 270 271 272 273 273 272 272 273 274 274 275 275 275 276 277 278 278 278 278 280 281 282 283 285 285 286 286 287 288 288 288 288 288 288 288 289 290 291 292 293 293 293 293 294 296 298 299 300
273 273 272 271 271 270 270 269 268 268 268 267 266 267 267 269 269 269 269 269 269 269 268 269 269 269 271 271 270 272 273 273 273 272 272 273 275 275 275 275 277 278 278 280 282 281 281 283 282 283 284 285 286 286 286 287 287 287 287 288 288 289 290 291 291 291 291 292 292 292 293 294 297 299
272 272 272 271 271 271 270 269 269 269 268 268 267 267 267 268 268 267 268 268 269 268 269 269 269 270 270 271 272 273 273 272 273 274 273 272 273 274 275 276 276 277 277 276 277 280 280 280 281 282 283 283 284 284 283 283 282 283 285 287 287 288 288 289 289 289 290 290 290 291 292 292 293 296
272 272 272 272 271 271 273 274 273 272 271 268 266 267 268 268 268 268 269 269 269 269 269 269 270 270 270 271 272 272 272 272 272 274 274 273 274 275 275 275 276 277 276 276 276 276 277 277 277 277 277 278 280 280 281 282 282 282 284 285 286 286 287 287 288 289 289 290 290 291 292 292 293 294
272 272 272 272 274 275 275 275 275 275 275 274 270 269 270 269 269 269 269 269 269 269 268 269 270 269 270 271 272 272 273 274 274 274 274 273 274 274 274 274 275 277 276 275 274 275 277 277 276 276 276 277 278 278 278 278 280 282 284 286 286 287 287 288 288 289 289 290 290 291 291 292 292 293
271 271 271 271 274 275 275 274 276 276 276 276 276 275 275 274 271 270 269 269 270 269 269 270 270 270 270 272 273 273 274 274 274 274 274 274 273 272 271 270 274 277 275 275 274 274 276 276 275 276 276 277 277 278 278 282 283 283 285 286 286 287 287 288 288 288 289 289 290 291 291 292 292 292
271 271 271 271 272 273 273 273 274 276 277 277 278 278 277 277 277 276 273 271 270 271 270 270 271 272 272 273 274 274 274 274 274 274 274 274 273 272 272 272 272 276 278 275 274 274 277 277 276 275 276 277 277 278 281 284 284 285 286 286 286 287 287 288 288 288 289 290 290 290 291 291 292 292
271 271 271 271 272 273 276 275 274 274 275 277 278 278 279 278 279 279 279 279 276 276 274 273 273 274 274 273 273 274 274 275 274 274 274 274 274 274 273 273 274 276 278 276 274 273 275 277 275 275 276 277 277 278 281 283 284 285 285 286 286 287 287 288 288 289 289 289 290 290 291 291 291 291
271 271 271 271 272 272 273 274 273 273 272 272 272 273 274 274 275 277 278 278 278 278 276 275 273 274 275 273 274 275 276 275 274 274 273 274 274 274 274 275 276 277 278 275 274 272 274 276 276 275 276 278 277 278 280 284 285 285 286 286 287 287 288 288 288 288 289 289 289 290 290 290 291 291
272 272 272 272 272 272 272 273 273 272 271 270 270 270 271 272 273 274 274 274 275 275 275 275 275 275 276 276 276 276 277 276 276 276 276 276 275 275 275 274 274 274 275 275 274 270 273 276 275 275 276 278 277 278 281 283 285 285 286 286 287 287 288 288 288 288 289 289 289 290 290 290 291 291
272 273 273 272 272 272 272 275 277 275 272 271 270 270 271 272 273 273 276 277 278 276 276 275 275 276 277 279 278 279 278 278 278 277 276 274 272 270 268 267 269 269 272 273 272 270 271 274 273 273 276 277 276 278 278 282 283 284 284 284 285 286 286 287 287 288 288 289 289 289 290 291 291 291
273 273 273 273 272 272 272 275 278 278 276 272 271 271 271 272 273 273 275 278 279 279 280 280 281 281 281 281 280 281 281 279 277 274 270 268 268 267 265 266 267 268 271 272 272 270 269 271 272 272 274 274 275 275 276 276 281 282 284 284 285 286 286 287 287 288 288 289 289 290 290 291 291 291
273 273 276 274 272 272 272 276 277 278 277 274 274 273 273 272 271 272 274 275 276 278 279 278 278 278 279 279 279 278 278 278 276 270 267 268 268 266 266 265 266 267 269 270 273 270 270 272 274 273 274 275 275 276 276 277 278 281 282 284 285 285 286 286 287 288 288 289 289 290 290 290 290 288
272 273 275 276 274 273 273 277 278 278 277 275 274 273 272 271 271 273 275 273 272 271 271 273 273 274 275 273 271 271 275 275 274 271 269 268 267 266 266 266 266 265 267 272 275 270 270 272 272 273 271 270 273 276 277 277 278 278 278 279 280 283 284 284 285 286 286 287 287 287 288 288 287 285
272 273 274 276 278 277 277 277 278 278 279 275 274 274 272 272 272 274 272 271 271 272 273 272 272 270 270 269 269 269 269 269 270 270 270 270 269 267 267 267 267 265 266 271 273 269 270 271 269 272 270 266 265 270 274 275 277 277 278 278 277 281 282 283 283 284 284 285 285 286 286 286 286 285
272 272 272 273 277 279 278 278 279 279 279 278 275 274 274 274 274 274 272 272 273 269 269 268 268 267 266 266 267 268 268 269 269 270 270 270 269 268 267 266 266 266 268 271 275 271 268 269 268 269 268 269 268 268 270 272 273 274 276 277 277 278 278 278 279 279 282 283 285 285 286 286 287 286
271 272 272 272 275 279 279 279 278 278 278 278 276 275 277 277 276 274 272 268 267 266 264 263 263 263 263 264 265 266 267 268 268 269 269 270 270 270 270 268 267 266 267 270 274 270 268 267 268 267 268 267 267 269 268 269 271 273 274 276 277 277 278 278 278 278 279 279 280 282 283 286 287 288
271 272 273 273 276 278 278 277 277 277 278 277 276 277 276 275 275 274 266 265 263 262 261 261 261 262 263 263 264 265 266 267 268 268 269 269 269 269 269 270 269 268 269 270 271 270 269 268 270 269 267 269 267 268 268 267 269 272 273 274 275 276 277 278 278 278 279 280 280 284 285 286 287 288
272 273 273 273 277 277 276 277 277 277 277 275 275 275 274 274 273 266 263 261 259 260 260 260 260 261 263 264 264 265 266 267 268 268 268 268 268 268 268 269 269 269 270 270 270 270 270 269 269 270 270 269 267 267 266 269 270 270 270 272 274 275 276 277 278 278 279 280 280 280 281 281 283 284
273 274 276 276 277 276 276 277 277 276 275 274 274 273 273 272 263 260 258 258 258 258 259 260 260 261 263 265 266 267 267 267 268 267 267 267 268 268 268 268 268 269 270 270 270 271 271 270 270 271 271 271 269 268 268 267 268 268 269 269 269 273 275 277 277 277 278 278 279 280 280 281 282 284
276 276 276 276 276 276 275 272 268 266 267 271 272 272 270 263 259 258 257 258 257 258 259 260 260 262 263 264 266 266 266 266 265 265 264 264 265 265 265 265 266 268 269 270 271 271 271 271 271 271 270 269 270 268 269 268 267 269 270 269 270 272 273 275 276 277 277 277 277 278 279 281 282 283
274 275 275 274 274 272 272 271 271 269 269 266 265 262 261 259 258 259 257 258 259 259 260 260 261 263 264 265 265 264 264 263 264 265 264 264 264 265 265 265 265 266 268 270 271 271 271 271 271 271 269 268 269 269 269 269 267 268 269 270 270 267 270 272 274 276 277 278 279 279 280 281 282 283
273 273 274 272 268 267 265 264 262 262 261 260 260 259 259 259 260 263 266 267 262 262 261 261 262 262 262 261 262 263 263 263 264 265 264 264 264 265 265 265 265 266 266 267 269 270 271 271 271 271 270 269 268 268 269 269 268 268 268 269 269 270 271 271 272 273 275 277 277 278 279 281 281 282
267 265 263 262 262 262 261 259 259 258 256 257 256 256 255 255 256 256 256 256 258 258 258 259 259 260 260 261 262 262 262 262 263 265 264 264 264 265 266 265 265 265 265 265 267 267 269 270 272 271 271 270 270 269 268 266 267 268 267 268 268 268 269 271 272 273 275 275 276 277 278 280 281 282
265 264 262 262 260 260 259 258 258 258 257 256 256 255 262 260 257 257 257 257 258 259 259 259 260 260 260 260 261 261 261 262 263 264 266 264 265 264 265 265 265 265 265 265 266 266 267 268 269 270 270 270 271 270 269 267 266 267 268 268 268 267 269 271 272 274 276 276 275 276 277 279 281 283
264 262 261 260 259 259 259 259 259 258 258 257 256 256 256 255 257 259 258 259 258 259 259 260 260 260 260 260 261 261 262 262 263 263 264 264 264 264 265 265 265 265 265 265 265 266 267 267 267 267 267 267 267 268 273 270 267 267 268 268 268 269 269 271 273 274 276 276 277 276 277 279 280 282
263 262 261 260 259 259 259 259 258 258 258 258 257 256 255 256 257 258 258 260 259 259 259 259 260 260 260 261 261 262 262 263 262 263 263 264 264 265 265 265 265 265 265 265 265 266 267 267 267 265 264 264 264 263 264 271 272 269 267 267 269 270 271 272 274 276 276 276 278 278 277 277 279 282
262 261 261 260 259 259 259 259 259 257 258 258 257 257 256 257 258 260 261 263 261 260 260 261 261 261 261 261 262 262 262 262 262 263 263 264 264 264 264 264 264 264 264 265 266 266 267 266 266 265 264 263 262 261 263 267 270 273 269 267 267 268 269 270 271 273 277 279 278 279 279 279 280 282
261 261 260 260 259 259 259 258 258 258 257 258 257 257 258 259 260 261 263 261 260 259 260 259 260 260 261 261 261 261 261 262 263 263 264 264 264 264 263 263 263 263 263 265 265 266 266 266 266 265 264 262 261 261 261 264 265 268 272 269 267 267 269 268 267 267 268 271 275 280 282 281 281 283
262 260 260 259 259 258 258 258 258 258 258 257 257 257 258 258 259 259 259 259 259 259 259 260 260 260 261 261 261 262 261 262 262 263 263 264 264 263 263 262 262 263 263 263 264 265 266 265 265 265 265 264 262 263 264 263 263 266 269 272 270 267 267 267 266 268 269 270 271 275 280 284 285 286
261 260 260 260 259 259 258 258 258 258 257 257 257 258 258 258 258 258 258 259 259 260 261 261 261 261 260 261 261 261 262 262 263 263 263 264 264 263 262 263 262 263 262 263 263 264 264 265 266 266 266 266 266 267 267 266 266 267 267 269 273 270 268 268 267 267 267 268 270 272 273 279 282 284
259 259 259 259 259 258 258 258 258 257 257 257 257 260 260 261 260 258 258 259 261 262 260 259 259 259 259 260 260 261 261 262 263 263 264 263 263 263 263 264 262 262 262 262 263 263 264 265 267 271 269 268 268 268 265 263 262 263 264 266 270 272 273 273 269 268 268 270 270 270 271 274 279 282
259 259 258 258 258 258 258 257 256 256 256 256 256 257 258 259 258 262 262 262 260 258 257 258 258 259 259 260 260 261 261 262 263 263 264 263 263 263 263 262 261 262 261 261 262 263 266 268 268 268 267 267 265 263 261 262 261 262 264 265 267 270 272 273 274 274 271 270 270 270 272 274 277 279
259 258 257 257 257 256 256 256 255 256 256 256 256 258 258 258 257 257 256 256 257 257 257 257 258 259 259 260 261 262 262 263 264 264 264 263 263 262 261 261 262 262 262 262 264 265 265 266 267 266 266 265 264 264 262 262 263 263 263 264 265 267 268 272 273 274 275 275 276 274 274 275 276 276
258 258 257 256 256 255 254 254 254 254 255 255 257 257 258 257 257 257 256 256 256 256 257 257 258 258 259 260 261 262 263 264 264 264 264 263 263 262 262 262 262 262 262 263 263 264 265 265 265 266 264 263 264 263 262 263 262 263 263 264 265 265 265 267 269 272 274 276 277 278 279 280 280 281
257 257 256 255 255 254 253 253 253 253 253 254 255 256 257 257 257 256 256 256 256 256 257 257 258 258 259 261 261 262 263 266 266 265 264 263 263 263 262 262 262 262 262 263 262 263 264 264 265 265 264 264 264 264 264 264 263 263 263 264 264 265 266 267 267 267 269 271 276 281 282 282 282 282
Wind_Speed
6 5 6 6 7 6 6 5 6 6 6 6 6 6 6 6 4 3 3 3 3 3 3 1 2 3 7 7 8 9 9 12 14 8 8 9 8 16 22 23 23 24 25 26 26 26 26 27 27 28 28 28 28 29 29 29 28 28 29 29 30 30 31 31 31 30 31 31 31 30 34 34 31 31
5 5 5 5 6 6 6 6 6 6 6 6 6 6 6 6 7 5 4 5 4 6 3 3 2 3 5 5 5 5 7 13 15 10 10 9 9 19 21 22 23 23 25 25 25 26 27 28 28 28 28 28 29 29 30 30 30 30 31 31 31 31 31 31 31 31 31 33 32 31 31 34 35 33
6 7 7 5 6 5 6 6 5 5 6 6 6 6 5 5 5 6 5 5 5 5 5 2 2 3 4 5 6 4 4 7 11 9 9 9 17 22 16 21 22 23 24 25 26 26 27 27 27 27 28 28 29 30 31 32 31 31 31 32 32 31 31 31 31 31 31 31 32 32 32 32 35 36
7 7 7 6 6 6 5 5 5 5 4 5 5 5 5 4 3 2 4 8 10 4 4 4 3 3 6 6 7 7 6 7 12 7 7 9 15 10 9 17 22 23 24 25 25 26 27 27 27 27 28 29 30 30 31 32 32 32 33 33 32 31 31 31 31 30 30 31 31 32 33 33 33 37
7 7 7 6 6 6 6 5 5 5 5 4 4 4 4 4 3 3 4 8 11 6 6 5 0 3 4 5 4 7 7 8 7 8 8 8 8 8 8 9 15 22 24 24 25 26 28 28 27 28 29 29 30 31 32 31 32 31 31 31 31 31 31 31 30 30 30 30 31 31 31 31 33 33
7 7 7 6 6 6 6 6 5 5 5 4 4 4 4 4 3 2 4 7 7 12 2 7 3 1 2 6 4 5 9 7 8 9 8 7 7 8 8 9 9 19 22 23 24 26 27 27 27 29 28 29 30 31 31 30 31 31 31 31 31 31 31 30 30 30 30 30 31 31 31 31 32 33
8 8 7 7 6 5 6 5 5 5 5 4 4 4 3 3 3 3 4 3 6 9 5 2 6 2 3 5 9 8 6 7 7 10 8 8 8 7 9 10 9 15 20 23 24 25 26 27 28 29 30 30 30 31 31 31 31 32 32 32 32 31 30 30 30 30 30 31 30 30 31 32 32 32
9 9 8 7 8 7 7 6 6 5 5 5 4 4 3 3 4 3 3 4 5 5 10 2 2 7 6 6 6 8 8 7 9 8 10 8 8 9 8 9 9 10 19 24 25 26 26 28 28 28 28 28 29 30 31 31 31 32 31 31 32 31 30 30 30 30 31 31 31 31 31 31 32 33
10 9 9 9 9 8 8 6 7 6 7 5 5 4 3 3 3 2 2 3 4 6 9 10 4 6 7 5 6 6 10 11 10 9 9 9 10 10 8 8 8 14 22 23 24 24 25 26 27 28 28 29 30 29 30 30 30 31 32 31 31 31 31 31 30 30 30 30 29 31 31 32 32 32
9 9 9 9 9 9 9 8 6 7 7 5 5 4 3 3 3 2 3 4 5 6 9 8 12 6 8 9 4 7 8 11 14 13 10 9 7 10 12 9 8 9 8 9 10 14 18 20 24 27 28 29 28 27 26 27 28 29 30 31 30 30 31 30 30 29 30 29 29 30 30 31 33 33
8 7 8 8 9 9 8 8 8 7 6 5 4 5 4 3 3 3 3 4 5 6 8 7 7 10 7 5 11 7 6 10 9 14 15 14 8 9 12 14 9 8 11 12 19 19 18 23 22 25 27 27 25 25 24 27 30 29 30 28 28 28 29 29 29 30 31 32 30 31 31 32 33 33
8 7 7 8 8 8 7 7 7 7 7 5 6 5 5 4 4 3 4 4 5 6 7 7 8 7 9 9 6 7 8 9 7 6 12 17 15 13 10 8 13 12 11 13 10 11 15 15 18 23 24 23 24 28 29 31 33 33 32 30 30 31 33 33 33 33 33 33 32 31 30 30 32 34
8 7 6 6 6 7 9 12 10 10 9 7 7 6 6 5 5 5 5 5 5 5 6 8 9 9 8 7 10 14 11 13 14 12 11 13 12 12 15 11 7 11 14 13 12 9 6 11 10 8 10 14 20 23 29 25 31 31 31 31 32 32 32 32 33 33 33 33 32 32 31 31 31 32
6 7 6 7 13 14 14 14 14 14 15 14 9 7 7 7 7 7 6 6 5 5 5 6 8 9 9 10 11 11 12 9 11 12 11 17 15 15 18 16 6 10 12 12 15 11 5 9 14 11 13 12 12 13 14 13 18 25 31 32 32 33 33 32 32 33 33 33 33 32 32 31 31 32
10 8 8 7 11 13 13 12 17 15 16 16 16 16 15 13 10 8 7 6 6 6 6 6 7 8 11 10 9 11 10 12 10 13 15 12 17 16 15 23 15 4 6 18 15 14 4 6 14 15 12 11 13 12 13 23 30 31 32 33 33 33 33 33 33 33 34 34 33 32 32 31 31 33
9 9 9 8 7 8 9 9 10 14 17 17 16 18 19 19 19 16 10 7 5 6 6 5 5 7 10 12 12 11 11 12 15 13 12 17 13 18 17 15 20 10 12 15 20 22 4 5 11 16 13 9 11 15 22 30 31 31 32 33 33 33 33 33 33 33 33 33 32 32 32 32 32 34
10 10 9 9 8 7 17 12 9 7 9 14 18 16 16 16 16 16 17 16 10 6 8 9 10 10 12 13 11 9 12 15 15 17 15 12 17 13 21 16 16 20 10 18 21 28 21 5 12 17 18 10 11 15 21 29 30 32 32 32 32 32 32 33 33 33 33 33 33 33 33 33 35 35
11 11 10 10 9 8 9 8 9 8 6 4 5 6 6 5 10 14 16 16 17 14 9 8 10 11 11 13 12 12 12 15 14 14 16 10 18 16 20 21 18 20 10 15 19 24 23 6 11 17 17 11 12 13 19 31 31 31 31 31 31 31 32 33 33 33 33 33 33 33 33 35 35 34
10 10 9 9 9 9 9 8 10 8 8 6 6 6 6 7 8 9 9 9 7 8 8 10 11 12 12 13 14 12 10 10 12 12 14 14 13 14 16 18 17 16 12 12 14 21 22 12 13 16 14 13 14 13 18 27 29 30 30 31 32 33 34 34 34 35 34 34 34 35 35 35 35 36
9 9 9 9 9 9 9 12 18 14 9 8 9 9 9 9 8 8 10 13 13 11 10 10 11 10 11 15 15 15 14 13 11 11 12 12 13 14 14 16 15 14 11 9 13 17 18 12 14 18 14 14 14 16 12 23 32 34 36 38 38 38 37 37 36 36 36 35 35 35 36 36 34 34
9 9 9 8 8 9 9 14 18 19 16 9 11 10 10 9 8 6 6 12 17 18 18 19 20 22 24 24 24 24 25 17 14 12 13 14 10 12 14 17 14 14 11 7 10 14 18 14 16 16 15 14 16 17 15 15 23 31 33 34 34 33 33 33 33 34 34 34 33 32 32 34 34 32
8 9 16 12 8 7 8 16 18 19 15 10 10 9 7 6 5 5 6 6 5 10 15 19 22 23 23 23 22 19 19 22 19 10 13 12 9 14 12 16 17 19 15 11 9 14 13 15 12 13 14 17 14 13 13 14 14 21 24 29 31 31 31 31 32 31 31 31 30 30 31 32 31 21
8 8 13 17 11 9 11 18 17 18 15 8 7 7 5 6 6 7 5 2 3 5 6 8 9 11 11 8 9 11 20 21 17 10 10 9 9 11 12 12 15 17 14 2 3 13 12 14 16 13 15 16 15 13 12 14 11 10 10 12 17 29 32 34 34 35 36 35 34 34 35 34 31 17
9 9 8 13 18 18 18 18 18 17 18 9 6 6 5 7 8 3 1 2 5 7 6 6 6 7 7 9 9 9 9 9 9 11 9 9 9 11 13 12 12 14 17 12 11 14 13 13 17 14 14 18 19 17 18 15 13 12 10 12 14 22 29 31 29 35 35 33 35 35 35 34 32 17
9 9 8 6 17 21 20 18 19 17 16 13 7 8 6 5 3 3 4 4 5 2 4 6 7 7 7 7 7 8 8 8 8 9 12 11 12 12 12 13 12 15 14 13 17 11 12 10 19 12 15 11 17 19 21 20 14 11 13 13 16 15 11 12 11 16 22 33 35 36 36 35 36 27
9 8 8 7 14 22 20 18 17 16 14 15 6 5 9 8 8 6 1 3 1 2 3 5 6 6 6 7 6 7 7 8 9 9 9 11 12 12 12 12 13 16 17 15 23 13 12 14 16 13 15 13 18 18 21 20 14 9 13 13 14 15 13 14 13 14 13 13 14 19 22 31 32 35
10 8 9 9 17 19 18 16 16 15 15 12 7 7 7 6 7 4 4 3 3 4 5 4 7 6 6 6 7 7 8 8 9 9 9 10 11 12 12 15 14 18 18 18 15 13 11 13 15 13 18 14 17 18 22 21 22 13 13 15 14 14 15 12 15 15 15 14 13 29 32 33 35 35
10 9 8 10 19 17 15 15 14 14 12 5 5 5 6 6 1 5 3 4 2 4 4 5 6 7 5 5 7 7 8 9 9 9 10 11 13 13 12 14 14 15 17 16 15 14 14 14 17 15 18 16 17 18 23 25 21 23 22 18 15 16 14 11 15 15 14 14 13 15 11 15 14 18
8 10 15 17 17 15 15 16 13 7 7 8 7 6 5 2 6 2 2 0 1 3 5 6 6 7 6 7 9 10 10 11 10 10 10 11 12 13 13 15 14 15 14 15 15 13 14 15 16 16 14 12 15 17 22 26 25 25 21 22 22 15 12 12 13 13 13 14 14 14 13 12 12 12
17 18 18 18 17 17 12 6 6 5 3 4 6 5 4 6 2 2 1 1 2 5 5 6 7 7 7 8 8 10 11 10 10 10 12 11 12 11 12 13 14 13 12 13 15 14 15 13 15 15 16 15 13 16 20 20 24 24 19 19 23 24 22 16 15 14 16 15 18 16 15 15 17 14
12 15 13 9 10 8 11 10 7 7 4 4 4 4 3 1 1 0 1 3 4 5 5 6 6 6 7 8 8 8 8 10 10 10 11 11 12 10 11 13 16 15 11 10 12 14 14 16 17 19 17 17 15 16 17 17 20 22 21 20 20 20 21 18 18 16 15 11 12 12 13 14 14 17
9 8 11 12 6 5 6 6 5 4 3 3 3 2 1 0 0 2 6 6 3 3 4 5 6 6 6 7 8 8 8 9 10 10 10 10 13 12 11 12 13 11 13 11 10 13 15 15 17 18 18 18 19 17 12 14 16 18 20 21 21 23 23 21 18 16 16 15 16 17 18 13 14 11
9 8 7 7 6 6 6 5 6 4 3 2 2 1 0 1 0 1 1 3 5 5 4 6 6 7 6 8 7 8 9 10 10 9 10 11 11 12 11 13 13 15 14 17 12 10 9 12 14 17 18 20 21 22 19 20 18 15 17 17 19 23 22 21 20 19 16 13 17 15 18 15 15 14
9 8 7 6 7 6 7 7 6 6 5 4 1 0 1 1 1 3 3 3 5 5 5 6 6 7 7 8 8 8 10 11 10 10 12 12 10 11 12 13 13 12 12 14 15 14 12 11 11 12 15 18 18 19 17 19 22 19 15 17 20 21 24 20 21 21 16 15 17 15 16 16 16 13
10 9 8 8 7 7 7 7 7 6 6 4 3 1 1 1 3 4 3 5 5 5 5 6 6 6 6 8 8 9 10 11 12 11 9 9 11 11 13 13 16 15 14 14 14 13 12 13 12 15 13 12 15 17 21 20 18 20 17 15 16 20 22 20 19 19 16 16 12 16 14 17 18 15
9 8 8 9 10 9 8 7 6 6 6 5 5 4 2 3 3 4 4 4 4 5 5 6 7 6 7 8 8 9 11 12 12 11 12 11 11 11 11 10 12 13 12 12 14 13 11 14 12 14 16 18 15 18 17 13 21 18 16 18 14 15 19 20 18 16 15 17 15 16 17 18 17 16
10 9 9 9 8 8 8 8 8 7 6 6 5 5 4 3 3 3 5 5 4 5 6 6 6 7 7 8 10 10 11 11 13 12 13 12 11 10 12 12 13 13 15 15 13 14 12 13 12 12 15 16 18 20 25 9 16 24 18 20 21 16 17 18 18 20 17 15 17 16 17 20 18 15
11 9 9 8 9 8 7 7 7 6 6 5 5 4 3 3 3 4 4 3 5 5 6 6 6 7 7 8 9 11 11 10 11 12 13 12 11 11 11 13 15 14 15 13 13 12 13 13 13 12 12 16 20 22 23 23 13 11 16 20 20 19 14 17 19 20 20 19 19 18 15 17 17 15
11 11 10 9 9 9 9 8 8 8 6 6 5 4 3 2 3 3 3 4 5 6 6 6 6 6 8 9 9 10 12 12 13 12 13 11 10 12 14 14 15 14 13 13 13 12 12 11 12 11 13 15 17 19 19 22 27 18 13 24 21 21 20 16 20 20 18 18 18 19 17 19 18 23
10 9 9 9 9 8 8 7 7 6 6 5 5 3 3 3 3 3 4 6 5 6 6 6 6 7 8 8 10 10 11 13 13 13 13 13 12 12 13 13 13 14 15 17 15 16 11 13 11 12 13 15 17 19 20 22 24 24 22 24 31 27 25 18 20 20 20 19 16 16 19 18 18 14
10 10 9 8 9 8 9 8 7 6 5 5 4 4 3 3 4 4 4 6 7 6 5 6 7 7 8 9 10 10 13 13 11 11 11 13 13 14 15 15 14 15 14 18 16 14 12 13 17 31 28 19 18 18 18 19 21 22 21 20 20 26 32 30 24 20 18 17 14 17 19 19 17 15
10 10 8 8 9 8 8 8 7 6 5 5 4 4 3 3 4 8 7 8 6 6 6 6 7 7 8 9 10 11 10 12 11 12 12 12 13 15 15 13 13 16 15 17 15 18 16 15 18 16 12 14 14 16 19 18 23 22 22 21 20 20 24 30 35 34 27 19 17 17 18 18 17 18
9 9 9 7 7 7 7 8 7 6 5 5 4 4 3 3 3 5 4 6 5 5 5 6 6 7 9 9 10 11 12 12 12 13 14 12 10 13 13 15 14 15 14 16 16 16 15 16 14 14 11 10 13 13 19 21 21 22 24 23 23 19 16 21 28 32 35 38 37 30 22 16 13 16
9 9 8 8 8 8 7 7 6 6 5 5 4 3 3 3 4 5 5 5 5 6 5 6 7 8 10 11 11 11 11 12 13 13 13 13 13 13 14 16 16 15 14 15 17 15 13 14 12 14 14 14 12 14 18 20 21 20 20 22 22 20 22 17 14 21 27 33 38 40 45 44 39 34
9 9 9 8 8 7 7 6 6 6 6 5 4 4 3 3 4 5 5 5 5 6 6 7 8 9 10 11 12 12 12 14 15 13 12 12 12 14 14 15 15 17 15 15 15 18 14 13 13 12 12 13 11 14 17 18 20 21 23 23 26 23 18 16 17 18 17 17 23 32 36 39 43 44
Wind_Direction
165 164 168 156 153 156 148 147 148 150 149 154 157 159 163 181 191 259 266 268 258 289 182 223 304 49 6 11 4 354 346 340 342 344 347 342 338 330 332 332 332 332 331 330 328 326 324 323 321 319 317 315 312 310 308 305 302 299 298 297 296 294 292 291 290 287 285 284 283 280 285 285 283 286
163 165 163 158 150 156 148 151 153 152 156 155 162 166 168 179 199 207 234 264 214 263 253 206 273 356 26 7 348 346 332 335 338 340 337 333 326 326 330 328 327 327 326 324 323 322 321 319 317 315 313 311 308 305 303 301 299 298 297 295 294 293 292 290 288 287 286 285 282 282 278 280 282 279
164 167 168 163 154 156 149 147 153 153 151 153 154 157 162 185 192 220 237 265 240 208 234 235 30 2 359 346 333 325 316 326 332 328 322 322 323 326 323 324 323 323 321 320 319 318 316 313 310 308 306 305 304 302 301 300 299 297 296 296 294 292 291 289 288 287 285 284 283 280 279 276 278 280
172 169 171 174 161 159 146 150 147 143 136 135 140 145 155 168 175 170 230 247 250 226 262 285 300 30 350 343 323 316 320 319 323 312 309 309 316 315 314 316 318 318 318 316 314 314 314 311 308 306 304 302 301 300 299 298 297 295 294 294 293 291 290 288 287 286 284 283 281 280 279 276 273 275
172 176 173 173 164 153 151 153 145 145 144 141 146 152 154 180 191 181 233 252 274 261 242 254 134 360 328 306 298 303 307 314 309 309 304 304 307 306 303 305 307 311 311 312 311 311 312 309 305 305 302 300 298 297 296 295 294 293 292 291 290 290 288 286 284 283 283 283 282 280 278 277 275 270
176 172 169 171 163 162 152 152 156 153 154 153 156 173 168 191 187 204 215 257 264 284 210 287 294 241 268 296 288 296 310 304 306 305 305 300 299 303 300 299 300 303 304 307 308 309 309 306 303 304 302 298 297 296 295 294 293 292 290 290 290 289 288 287 286 285 284 283 281 280 279 278 276 275
168 169 173 172 162 154 149 158 155 148 153 154 158 165 167 164 203 200 217 242 266 275 272 231 285 281 309 303 310 308 296 297 295 301 303 305 299 289 293 292 292 294 297 301 304 304 305 304 302 300 299 297 296 294 292 292 291 289 289 289 289 288 287 286 285 284 283 281 279 277 276 275 274 272
172 174 168 177 168 160 157 161 157 158 156 160 161 159 180 177 192 203 197 223 255 294 297 279 343 310 315 300 292 301 300 304 306 303 300 290 288 291 287 284 287 284 294 301 302 300 298 301 299 297 296 296 296 294 292 291 291 290 289 289 288 286 285 284 283 283 282 282 281 280 278 277 276 272
172 174 181 173 170 166 162 164 169 165 165 165 161 164 177 174 186 194 209 236 253 277 279 293 291 309 298 291 298 307 320 318 311 305 301 304 303 295 289 290 285 289 298 296 295 295 293 294 297 296 297 295 295 294 294 292 291 290 288 286 284 284 283 283 281 279 278 277 280 279 277 275 274 275
175 178 177 175 172 172 173 177 171 168 166 160 159 162 170 166 192 203 238 247 257 263 273 289 304 314 318 317 307 326 322 319 316 313 305 300 303 309 311 301 300 301 289 293 285 283 285 282 285 292 296 295 291 291 291 292 292 290 290 287 283 283 283 281 280 281 281 280 284 284 282 283 281 273
174 177 174 175 177 177 178 171 171 163 161 163 170 172 170 185 184 219 234 247 258 263 278 280 277 300 307 302 313 323 308 300 301 309 318 315 311 306 311 309 305 295 289 275 279 283 283 287 292 291 289 289 288 288 293 296 293 291 289 287 286 286 286 286 286 286 283 281 280 279 279 277 278 277
172 173 175 178 181 175 170 163 162 162 165 160 177 178 172 183 199 214 232 241 248 263 274 282 302 304 304 308 281 287 304 302 300 300 311 307 313 310 301 296 306 303 287 293 282 268 279 280 277 280 281 281 286 291 294 293 290 287 286 285 287 288 287 285 284 284 283 281 280 278 275 275 274 271
164 168 170 169 168 170 169 173 171 173 171 166 178 190 174 191 198 216 222 228 244 259 274 284 292 292 295 298 315 320 324 320 311 313 303 293 302 303 305 304 289 291 298 295 281 275 261 281 277 268 272 274 279 278 281 285 286 285 284 283 282 282 282 283 282 281 280 277 277 276 274 272 272 271
159 165 167 175 177 181 184 186 188 191 194 189 183 183 183 189 202 210 215 225 235 246 254 266 287 292 288 302 308 303 304 300 304 303 310 307 308 310 304 296 295 298 293 291 293 285 257 275 281 276 273 273 271 275 278 271 279 282 283 282 283 282 282 279 279 280 278 275 274 273 272 271 271 269
170 171 175 176 189 187 191 193 196 197 198 202 201 199 199 198 196 203 214 210 210 228 252 258 270 276 285 292 298 301 307 307 305 307 307 307 309 309 315 311 314 149 315 306 291 280 242 247 284 283 272 275 278 267 266 280 283 283 283 282 282 280 278 279 279 279 277 273 272 271 270 270 270 270
164 169 172 181 187 188 187 185 196 202 205 208 214 218 218 220 218 210 201 215 215 224 237 236 227 274 283 298 304 304 306 305 304 301 303 301 300 305 297 298 297 314 317 300 302 293 253 259 275 284 280 277 269 274 280 285 285 283 282 281 281 280 278 277 279 278 277 273 272 272 272 271 270 269
171 172 172 174 186 190 191 190 192 196 208 214 219 225 228 232 236 241 240 239 244 256 270 273 276 278 290 292 291 293 297 300 297 302 297 299 294 291 292 286 295 298 323 305 297 296 296 311 283 286 287 276 272 274 278 281 281 279 279 278 277 276 276 276 277 277 277 276 274 274 273 271 270 270
172 176 174 175 179 180 188 187 184 188 194 199 223 230 231 232 242 245 248 255 261 265 268 278 279 279 273 274 277 280 290 294 291 294 292 289 290 284 286 293 296 297 311 295 296 293 290 318 291 286 287 284 273 269 272 283 283 281 279 279 278 277 277 277 278 278 277 275 274 273 272 272 270 269
175 176 176 177 172 171 181 184 181 178 185 189 205 217 227 234 233 235 240 242 245 248 251 257 260 266 267 273 281 282 275 269 278 280 284 294 300 302 303 296 290 291 293 291 287 282 290 316 298 290 290 290 281 273 276 280 282 283 282 282 282 282 281 280 279 277 276 275 276 275 274 272 270 269
178 177 176 173 173 171 175 187 191 186 180 186 199 212 221 227 231 232 234 238 242 242 240 235 242 247 255 269 281 287 293 294 296 303 309 309 303 302 300 291 298 289 297 290 283 284 291 317 302 294 288 284 283 284 277 283 286 285 282 282 280 279 278 277 276 276 276 276 274 273 271 271 269 270
177 180 179 176 168 172 173 190 197 196 191 195 204 213 220 222 223 223 227 258 269 273 276 278 283 286 289 291 290 291 293 296 307 313 305 296 307 300 298 294 295 288 301 283 273 277 287 294 292 290 287 285 280 282 279 275 274 275 279 278 280 279 277 276 276 276 275 274 271 270 271 272 272 271
177 181 181 175 173 172 177 196 199 201 202 199 198 201 204 208 233 249 249 253 264 283 289 290 288 286 286 287 290 297 301 298 300 301 288 296 308 290 285 286 292 296 290 284 275 278 272 289 284 288 287 285 272 270 271 274 267 267 274 279 280 281 280 279 280 280 280 279 276 276 277 279 280 282
172 181 191 190 182 185 193 199 200 203 204 197 198 196 193 219 240 248 234 236 294 297 284 273 273 280 284 296 302 297 297 297 297 290 282 293 284 281 282 281 293 297 288 241 310 299 306 305 299 309 308 296 299 295 286 281 280 275 274 280 280 279 279 280 280 281 282 282 282 283 282 281 281 277
176 181 188 198 203 197 198 201 203 205 205 197 184 189 207 222 230 208 140 269 265 265 275 289 295 293 293 296 296 294 290 286 279 281 280 282 285 283 285 284 277 275 282 289 312 293 291 287 291 299 292 298 301 308 297 281 278 277 270 270 270 273 276 276 277 276 275 275 275 275 276 276 274 269
173 178 185 188 202 199 199 200 201 203 210 208 194 204 210 204 210 237 234 260 306 347 302 299 298 297 296 289 289 287 286 283 279 279 282 280 280 280 282 283 278 271 272 280 302 298 299 304 290 294 285 273 283 293 291 290 276 278 280 269 270 269 264 263 261 266 267 270 271 272 272 272 271 268
175 173 179 181 204 203 200 199 200 203 206 210 197 208 225 239 253 263 63 86 50 321 324 307 295 291 290 286 284 284 286 284 281 280 278 279 279 278 277 284 290 292 289 296 298 290 290 288 288 296 288 289 288 285 291 290 286 284 280 269 268 269 265 265 262 259 260 260 263 265 266 269 269 268
176 172 184 184 199 197 192 194 198 201 203 207 218 216 228 234 251 274 79 59 37 341 319 306 289 284 283 292 289 290 288 286 282 279 279 273 272 269 268 267 268 273 282 290 290 282 275 274 280 279 283 286 286 289 283 285 293 297 285 282 277 270 270 271 272 271 269 268 264 272 274 273 273 272
174 171 166 176 190 189 192 193 195 199 204 187 181 199 214 235 252 77 44 44 4 331 298 285 281 280 284 288 290 286 286 286 283 278 274 277 275 272 271 269 266 264 272 276 278 280 275 274 277 272 274 278 281 283 289 288 284 289 293 294 282 274 268 255 258 258 261 260 260 261 259 264 259 264
161 162 165 174 186 192 191 191 194 188 187 182 190 195 206 137 79 82 76 25 5 289 269 266 272 280 279 282 284 287 288 288 288 286 284 280 275 275 273 270 266 265 267 268 269 267 267 268 270 276 272 263 271 275 280 283 290 287 290 294 289 286 281 263 263 268 267 265 263 261 257 260 264 256
164 166 173 181 187 190 180 154 105 86 133 177 190 183 106 73 88 90 82 348 241 251 259 264 271 277 284 285 284 291 292 290 288 290 288 288 283 282 281 283 275 263 251 259 266 269 269 267 269 272 272 268 258 269 274 281 284 282 285 280 285 290 278 274 266 254 256 258 262 261 258 255 258 261
165 171 177 174 160 131 140 138 144 137 143 90 62 55 68 86 88 103 141 205 236 253 254 264 270 276 285 288 292 289 289 285 282 282 283 282 280 281 281 281 283 284 264 243 256 269 272 273 273 278 276 276 270 261 271 273 274 281 281 280 283 280 287 286 275 273 272 268 267 259 256 252 249 245
153 146 146 139 116 114 92 90 71 84 85 110 97 68 74 71 74 247 260 267 247 258 259 272 279 282 283 282 280 285 282 280 280 280 279 279 284 283 284 281 278 279 283 273 253 258 262 265 269 272 269 274 278 278 268 262 265 275 279 278 278 277 276 277 278 270 261 265 266 263 262 255 254 248
106 106 104 111 131 136 136 124 128 117 96 76 81 81 30 21 292 261 233 244 262 258 268 269 270 278 280 281 284 284 286 280 282 281 281 278 276 284 278 277 281 290 295 296 293 271 251 260 258 264 271 273 271 272 277 278 268 261 270 277 278 274 275 272 272 269 265 254 258 259 262 253 246 242
129 133 136 147 152 155 152 154 152 153 142 136 111 28 204 179 228 244 247 245 252 259 257 263 274 277 283 287 289 288 284 289 284 280 284 286 282 282 284 284 283 285 288 290 293 293 290 275 267 260 260 258 254 250 254 265 273 272 263 270 272 274 272 272 270 267 263 256 256 260 256 253 249 242
147 153 155 160 155 163 160 166 166 158 154 157 146 186 218 227 233 253 246 258 255 259 264 269 267 271 280 282 287 289 289 290 292 290 274 263 278 277 284 288 294 296 294 293 293 295 294 292 290 284 274 261 266 256 220 231 260 266 272 262 267 270 273 272 267 264 256 255 243 250 252 254 255 245
147 152 156 164 160 156 165 174 165 161 157 163 165 170 180 238 224 220 243 248 240 257 265 273 278 280 281 283 286 288 291 291 291 292 294 291 285 280 280 277 284 289 289 290 293 292 293 293 298 294 295 295 286 285 281 222 249 271 274 276 267 272 281 289 287 278 264 256 245 243 249 251 251 246
153 161 165 168 170 170 173 171 169 166 162 164 173 176 186 213 222 219 245 270 270 268 265 270 273 282 284 287 290 288 288 290 292 292 293 289 281 283 290 290 290 290 291 290 290 292 296 295 293 288 291 291 290 288 285 279 240 252 263 272 277 270 278 279 278 279 274 262 252 239 243 247 248 245
162 160 169 171 170 174 166 165 159 164 168 172 171 181 198 212 245 254 270 272 274 275 278 278 276 281 282 289 295 294 292 284 282 286 289 292 293 295 295 298 299 297 295 291 294 292 296 290 289 287 284 284 291 292 296 296 278 243 239 263 272 277 273 279 280 277 281 282 283 275 254 241 241 239
161 166 170 168 169 168 170 171 164 169 171 168 170 178 197 223 237 264 265 265 271 273 276 277 275 279 289 293 290 291 295 298 296 291 289 290 289 295 299 299 297 298 296 293 295 291 289 280 283 280 279 279 282 285 290 293 291 290 245 246 265 275 268 266 271 273 275 279 274 276 275 262 251 242
159 162 167 163 169 167 166 161 163 167 166 170 167 170 177 215 234 241 259 264 269 268 267 271 285 294 292 289 289 287 285 283 285 289 290 290 289 292 294 294 294 299 301 298 299 299 290 287 287 287 286 284 282 282 284 281 282 282 280 269 254 255 265 263 260 263 267 262 268 278 275 272 259 242
154 164 170 166 161 166 164 165 164 158 164 162 159 185 192 208 235 244 245 259 256 268 286 293 295 291 288 288 286 287 289 288 282 281 282 286 288 294 293 297 297 299 297 295 298 294 289 293 287 293 291 286 284 283 280 281 279 282 284 278 270 255 257 256 255 256 256 262 262 264 265 262 269 253
158 163 160 164 163 167 162 157 161 157 157 158 162 179 189 214 212 262 268 284 297 294 286 283 286 286 285 284 283 283 277 280 286 288 288 288 295 298 298 299 296 299 298 296 300 296 292 286 289 284 280 283 284 286 279 277 282 287 286 288 288 275 261 258 256 254 253 255 255 253 252 256 256 262
155 155 161 165 159 157 161 156 156 158 154 153 161 183 187 221 234 257 268 268 269 275 275 280 282 283 283 281 279 278 281 282 284 285 289 290 294 299 302 302 299 293 292 290 290 286 292 294 293 289 283 272 279 276 280 282 281 283 288 289 289 291 279 260 259 259 255 250 247 246 247 248 251 245
155 156 159 161 160 160 155 156 152 148 149 156 168 177 204 220 245 252 252 261 270 272 278 280 283 283 283 283 281 280 277 281 287 290 293 298 300 297 297 300 299 297 294 294 296 293 293 292 288 290 292 288 282 283 281 282 283 283 284 287 288 287 284 285 267 262 262 258 252 248 246 243 242 251
154 156 155 161 159 155 156 153 150 148 152 161 169 182 203 220 243 252 260 257 266 268 276 277 279 279 279 281 283 283 284 290 293 286 288 291 294 298 298 297 298 300 298 299 300 301 298 290 290 284 279 278 282 282 282 280 284 290 290 288 289 286 284 283 282 276 269 268 261 253 244 242 240 239